GFSSE_925_thetae_093.txt.gz
Theta_e
336 338 334 333 334 334 333 333 336 335 335 334 335 335 334 334 332 331 330 331 334 335 336 333 334 337 336 335 333 333 334 335 335 334 335 336 336 336 334 334 336 337 336
337 338 334 334 330 333 334 333 335 336 336 335 335 333 333 333 331 330 329 330 330 331 331 332 332 332 332 331 331 331 330 331 331 331 331 331 331 332 332 332 335 336 336
338 338 335 334 334 333 333 333 335 336 337 336 335 333 333 332 331 330 330 329 330 329 331 331 331 330 330 329 329 329 329 329 328 331 332 333 334 334 333 331 330 334 334
339 335 336 334 330 333 334 333 334 337 337 336 333 332 332 332 330 330 330 330 330 329 329 329 329 328 329 329 327 326 327 332 332 332 332 331 331 333 332 332 331 330 327
336 336 336 329 328 333 333 331 337 337 336 334 332 331 331 332 330 329 331 331 329 328 328 328 328 328 328 327 327 327 327 328 329 330 330 329 329 331 331 331 330 329 329
338 336 329 327 324 327 331 331 336 336 335 333 328 330 330 332 328 327 328 328 328 329 327 329 328 327 325 325 326 325 325 325 326 327 327 328 327 328 329 328 328 326 326
339 336 333 328 327 327 328 331 333 335 334 333 330 328 329 330 327 328 329 329 326 328 329 328 327 326 325 324 323 324 325 325 326 326 326 327 326 327 328 327 326 324 323
338 336 334 330 327 325 326 331 330 333 334 333 330 326 326 329 328 327 326 328 328 326 327 326 325 324 324 323 323 323 323 324 323 324 324 325 322 324 322 321 321 321 321
338 337 334 333 329 326 325 326 328 332 334 332 330 327 325 327 328 326 325 328 330 328 324 325 324 325 323 323 323 323 321 321 323 324 324 323 321 324 322 322 320 319 319
338 338 336 334 332 332 329 326 326 328 332 331 328 325 323 322 326 325 323 326 326 325 325 324 324 323 322 322 322 322 320 323 323 322 321 320 319 322 321 318 318 318 317
336 337 337 335 333 332 332 327 326 327 329 330 327 323 326 326 326 326 326 324 325 324 324 324 324 323 322 322 322 321 322 323 322 321 321 316 319 320 319 317 316 316 315
336 337 337 336 335 333 331 329 331 331 330 330 330 327 329 327 325 326 325 323 324 323 323 323 324 323 323 324 323 320 323 322 321 321 320 316 318 318 318 316 315 314 314
336 337 336 337 336 334 332 332 332 331 331 331 331 330 328 326 323 324 325 323 323 322 323 322 322 323 323 322 322 322 323 322 321 320 319 316 317 318 317 316 315 313 313
336 336 335 336 336 336 334 333 333 332 331 331 331 330 328 326 326 325 325 325 324 322 323 323 322 322 322 322 322 323 323 322 321 320 320 317 316 317 317 316 315 315 314
335 335 335 335 335 335 335 334 334 333 332 331 330 330 328 326 326 325 325 325 324 322 322 322 321 321 321 321 322 323 323 323 322 321 320 319 316 316 317 317 316 315 313
334 335 335 335 334 334 334 333 333 333 333 332 330 330 328 327 326 325 325 324 323 323 322 321 321 321 321 321 321 322 323 322 322 321 321 320 319 316 316 318 317 316 316
333 334 335 335 335 333 333 333 332 331 333 332 331 330 328 327 326 325 325 324 324 322 321 320 320 319 320 320 320 321 321 321 321 320 320 320 319 318 316 316 317 317 316
332 334 336 336 336 334 333 333 332 332 331 331 331 331 329 328 326 324 323 323 323 321 321 320 319 317 316 317 318 319 319 318 319 319 318 318 318 318 318 317 315 316 317
332 333 335 336 335 334 333 333 333 332 332 331 331 330 331 329 327 325 324 323 322 321 320 318 316 317 317 317 316 317 317 317 317 317 317 317 317 317 317 317 316 315 314
330 332 333 335 336 335 333 332 333 332 332 332 331 330 330 330 329 327 325 323 323 321 321 320 319 317 316 316 317 316 316 316 317 316 316 316 316 316 316 316 316 316 315
316 328 331 333 335 335 332 333 332 332 332 332 332 331 331 330 330 328 326 325 325 322 321 322 321 319 317 316 313 315 315 315 315 315 314 314 315 315 315 315 315 315 315
310 314 324 330 332 334 333 332 332 332 332 332 331 331 331 331 331 329 327 326 325 323 322 321 321 319 317 316 314 313 314 318 318 318 317 315 315 314 314 313 314 313 313
310 309 312 320 327 331 333 331 331 332 331 331 331 331 330 330 330 330 329 327 325 324 323 322 320 320 317 316 316 314 312 313 317 320 318 316 315 313 313 313 313 313 312
314 311 307 313 319 325 330 331 330 329 329 329 328 328 328 327 328 329 330 329 329 327 326 326 323 321 319 316 315 314 314 314 312 313 316 316 316 313 313 312 312 313 312
314 317 312 308 315 320 324 327 328 327 327 326 327 328 328 327 327 327 328 328 328 328 327 327 325 323 321 318 316 315 313 310 310 307 313 314 314 314 315 314 313 312 313
312 313 316 319 317 315 320 324 325 324 324 325 325 325 327 327 327 329 328 328 327 327 327 326 325 323 322 320 319 316 314 313 307 307 306 309 310 311 313 314 313 313 312

GFSSE_925_thetae_096.txt.gz
Theta_e
337 334 327 330 330 332 331 333 335 336 336 335 334 335 335 332 330 329 334 336 336 334 334 335 336 337 336 334 332 332 332 331 331 332 332 334 336 336 335 334 335 336 337
339 337 334 330 334 332 333 335 335 336 335 334 333 334 333 332 333 330 330 330 330 333 332 332 332 332 331 330 330 330 329 329 330 330 331 331 332 334 333 333 335 335 335
338 335 330 329 328 331 333 335 336 337 335 334 333 334 332 331 332 331 329 329 330 330 331 331 331 330 329 328 328 328 328 331 331 332 331 332 333 333 333 332 332 333 333
336 333 333 332 332 333 333 335 337 337 335 333 332 333 331 330 330 331 330 328 330 330 329 328 329 329 329 326 326 331 330 330 329 330 329 330 330 332 332 331 331 329 328
335 335 328 326 332 334 333 335 337 336 333 333 332 332 333 330 330 331 328 328 329 328 328 328 329 328 327 326 326 327 328 328 327 327 328 328 327 330 330 329 327 327 327
336 333 326 326 332 333 330 336 337 335 332 329 330 332 332 328 328 329 328 327 327 329 329 328 328 326 326 325 325 325 325 326 326 326 326 324 326 330 329 328 325 324 324
335 328 327 326 327 330 329 336 336 334 332 329 326 330 330 327 327 328 328 325 327 328 327 327 326 324 323 323 324 324 324 324 324 324 323 323 323 325 326 323 323 322 321
336 333 329 327 325 327 331 331 334 334 333 330 325 326 330 327 326 327 327 327 326 325 325 325 324 324 322 322 322 322 323 323 324 322 322 320 320 324 322 321 321 320 320
335 334 330 327 325 324 328 328 332 333 333 330 326 322 325 327 324 326 329 329 327 324 325 324 324 322 322 322 322 321 320 323 323 322 322 318 321 324 322 320 320 319 318
335 334 333 330 326 324 324 326 330 332 330 329 323 320 320 325 324 322 326 327 326 325 324 324 323 322 322 321 322 320 323 322 322 321 320 316 321 322 321 318 318 317 316
336 335 334 332 332 331 326 324 325 329 330 328 323 322 327 323 325 327 324 325 325 323 324 323 323 322 322 321 321 320 323 322 321 321 320 316 319 320 319 318 317 316 315
337 336 335 334 332 333 331 325 325 325 326 328 326 328 328 326 325 327 322 322 323 322 323 322 321 323 324 324 322 322 322 321 321 320 320 316 318 319 318 317 316 316 314
336 337 337 335 334 332 331 329 331 328 330 331 331 329 328 326 325 324 321 319 319 321 322 318 322 321 322 321 322 322 323 321 321 320 320 319 316 318 318 316 315 314 314
336 337 335 337 335 334 331 331 332 331 331 331 331 330 327 326 322 325 325 325 324 322 323 321 322 322 320 318 321 322 322 322 322 321 320 320 317 317 318 318 316 316 314
336 337 336 334 336 336 334 333 333 332 331 331 331 330 328 326 325 325 325 325 324 322 322 322 321 320 318 320 320 321 322 323 322 321 320 320 320 318 318 319 318 317 316
335 336 335 335 334 335 335 335 334 333 332 331 330 330 328 327 326 325 325 324 324 323 322 321 320 320 320 320 320 321 322 323 322 322 321 321 320 320 318 318 319 319 318
334 335 336 335 335 333 333 333 332 333 333 331 331 330 329 327 326 325 325 324 324 323 322 321 320 320 320 320 320 320 321 320 321 321 321 320 320 319 319 319 318 319 319
332 333 335 335 335 333 332 333 332 332 332 332 331 330 329 328 327 326 325 325 324 323 322 321 320 319 317 316 318 319 319 320 319 319 319 319 319 318 318 318 318 317 319
331 332 334 335 335 335 332 332 332 332 331 330 331 330 330 329 328 326 326 324 323 323 322 321 320 319 318 318 317 316 317 317 317 317 317 318 318 317 317 317 318 317 317
331 332 333 336 336 335 332 332 331 331 331 331 331 330 330 329 329 328 326 325 324 323 324 323 320 319 317 317 316 316 317 317 316 317 317 318 318 318 317 317 317 317 317
324 330 332 334 336 335 333 331 332 331 331 331 332 331 331 330 330 330 328 327 324 324 324 322 321 321 320 319 317 317 318 318 318 318 318 317 318 318 316 316 316 316 316
310 315 325 331 334 336 334 331 331 331 331 331 331 330 330 330 331 331 330 328 327 326 325 324 322 321 320 320 317 313 313 317 320 322 320 320 319 318 317 316 315 315 315
310 309 313 323 330 333 335 332 331 331 331 330 330 328 328 328 328 329 330 330 328 327 326 326 324 322 320 319 318 316 313 314 313 320 320 319 319 318 317 316 316 314 314
314 312 309 313 320 328 333 333 329 328 329 328 328 327 327 327 326 327 328 329 330 328 326 327 327 325 322 319 318 317 316 315 312 315 316 318 319 317 319 318 315 314 314
316 316 307 310 316 322 327 332 330 327 327 326 326 326 326 326 326 326 327 327 327 327 327 327 326 324 323 321 319 317 316 314 312 310 313 315 315 315 315 316 316 316 316
313 317 317 311 315 319 323 326 327 325 324 324 324 323 325 325 323 323 326 326 325 324 324 324 323 323 322 322 319 319 316 314 312 309 309 313 313 313 313 313 313 313 313

GFSSE_925_thetae_102.txt.gz
Theta_e
334 335 337 337 336 337 337 337 335 335 335 335 335 334 334 335 335 334 332 332 335 336 335 335 336 336 334 333 333 332 331 332 333 335 335 337 337 336 334 333 333 334 333
331 335 335 336 335 336 336 335 333 333 333 334 334 333 332 333 334 334 332 331 332 332 332 334 334 333 332 332 330 329 329 329 330 331 331 333 334 334 333 332 332 333 333
331 334 331 333 333 334 336 336 332 332 331 333 334 334 332 331 332 332 331 329 330 330 330 332 332 332 330 330 330 329 328 327 328 328 329 329 331 332 332 331 331 331 329
329 331 332 332 332 335 336 334 328 331 331 330 332 334 332 332 330 330 329 329 329 329 330 330 331 332 329 329 328 327 326 325 326 325 326 328 329 331 331 330 329 328 329
329 327 327 330 332 334 336 333 326 329 331 331 333 334 333 332 330 330 330 329 329 328 329 329 330 330 327 325 326 325 325 324 324 324 326 327 329 330 329 325 323 324 323
329 330 330 331 331 334 335 332 322 325 330 330 332 333 331 329 326 328 329 328 328 328 327 328 328 325 324 323 325 325 324 323 323 322 325 326 327 328 328 324 322 321 322
327 327 331 331 332 335 334 331 325 323 329 330 331 330 328 328 324 324 327 328 328 328 327 326 323 323 324 322 323 324 322 322 321 320 320 320 320 325 325 324 322 321 322
324 328 328 328 333 335 335 332 328 324 328 329 327 326 326 326 328 326 324 324 325 327 327 321 320 322 321 320 321 323 322 322 321 320 317 318 324 325 324 323 321 321 320
322 323 325 326 331 335 335 332 330 325 319 322 321 321 321 327 328 328 326 324 324 326 323 321 319 320 320 318 321 322 322 322 321 320 319 317 322 324 322 322 320 320 318
324 324 323 324 326 333 332 331 331 326 319 317 318 319 319 326 328 329 325 324 323 323 323 321 319 318 318 320 322 321 321 321 321 320 319 315 317 321 320 321 320 318 317
325 324 323 323 325 326 331 332 330 325 320 318 317 318 317 318 324 326 325 324 323 322 323 321 320 319 319 317 321 322 321 321 320 320 319 317 316 319 319 318 316 317 315
327 324 323 322 322 324 326 330 327 325 321 321 324 323 322 323 323 319 323 321 320 320 320 321 320 321 321 321 321 322 321 321 321 320 320 319 318 317 317 316 315 316 315
330 329 324 324 322 322 322 324 325 325 323 322 327 326 325 324 325 322 317 318 318 318 316 319 320 319 320 320 320 321 322 321 321 320 320 319 319 318 319 319 318 316 316
333 333 330 329 330 326 322 322 323 323 327 326 327 327 325 325 323 324 320 321 320 320 319 317 317 318 318 316 318 319 321 321 321 321 320 320 319 319 319 320 320 319 318
333 333 333 332 332 331 329 325 326 326 328 329 329 328 326 324 321 324 324 324 323 322 321 320 319 318 317 316 318 318 319 320 321 321 321 321 320 320 320 321 322 322 321
334 334 333 332 332 331 331 329 330 330 330 330 330 329 328 325 324 324 324 324 324 323 322 320 320 319 319 318 319 319 319 319 319 320 320 320 320 320 320 320 321 322 323
335 335 334 333 333 332 332 332 331 331 331 330 330 330 329 327 325 325 324 324 324 323 323 322 321 320 320 319 319 318 318 318 318 318 318 319 319 319 319 319 319 320 322
335 335 335 335 334 333 332 332 332 331 331 330 329 329 329 329 326 325 325 325 324 324 323 323 322 321 320 320 320 319 319 319 319 318 319 320 320 319 318 318 318 318 318
334 335 335 335 335 335 334 334 333 333 331 331 330 329 328 328 328 327 326 325 324 324 324 323 323 322 321 320 320 320 321 321 322 322 322 322 321 320 320 319 318 317 317
333 334 335 335 334 334 334 334 331 330 330 330 330 330 328 328 327 328 328 327 326 326 325 324 322 322 322 322 322 323 323 323 322 322 321 321 321 320 321 320 319 318 318
331 334 335 335 334 334 333 331 330 330 330 329 329 329 329 329 329 329 328 329 328 327 326 325 324 324 324 323 322 323 324 322 321 320 320 320 320 319 319 319 319 318 318
329 331 333 334 334 334 333 332 330 329 329 329 329 328 329 329 330 330 330 330 330 329 327 327 325 324 323 323 320 317 315 319 319 320 318 318 317 317 317 316 316 315 316
317 323 328 332 333 334 334 333 330 329 328 329 329 329 329 330 329 328 328 328 329 329 327 327 326 324 323 322 321 318 317 316 315 317 315 316 315 314 314 313 313 313 313
310 311 313 321 332 333 333 333 331 327 327 327 327 328 328 327 327 326 326 327 327 328 327 326 325 324 322 321 320 319 317 315 313 316 315 314 313 313 312 312 311 310 311
312 312 310 310 320 333 334 333 330 329 327 326 326 326 326 327 326 326 326 326 326 325 325 323 323 321 320 318 318 317 315 314 312 310 312 310 310 310 310 311 309 310 310
315 315 310 308 312 324 333 333 329 330 327 326 325 325 326 325 323 321 320 320 319 319 318 317 316 315 314 313 313 312 311 312 312 310 308 308 307 307 306 305 307 307 308

GFSSE_925_thetae_105.txt.gz
Theta_e
334 335 336 337 337 337 336 335 334 332 334 334 335 335 336 336 335 333 334 334 333 333 334 335 335 336 336 334 333 333 331 332 333 335 334 335 336 335 334 333 333 333 333
334 336 337 335 335 336 335 332 332 331 333 332 333 333 334 335 335 333 331 331 331 332 333 334 334 334 333 332 329 328 329 329 329 329 331 332 332 334 333 332 331 332 332
335 337 334 333 335 336 334 330 331 332 333 334 333 332 332 332 332 331 330 329 330 331 331 332 332 332 330 329 327 326 326 327 327 329 329 330 331 331 331 330 330 329 328
333 331 331 332 334 336 332 329 331 330 331 334 335 332 331 331 329 330 330 329 329 329 330 330 331 330 328 328 327 325 325 324 324 324 326 327 327 330 329 328 328 327 326
332 332 331 332 335 335 330 326 330 328 331 334 336 332 330 329 330 329 329 328 329 328 329 330 331 328 326 328 325 324 323 323 323 325 327 328 329 329 328 325 324 323 322
329 331 332 334 335 335 330 322 330 331 331 333 333 333 330 329 330 329 327 328 326 327 328 330 329 324 324 325 324 323 322 321 321 323 323 323 326 328 327 326 325 321 322
329 331 332 332 335 334 328 320 327 330 328 330 330 329 328 325 327 328 329 329 328 327 328 328 326 323 322 323 323 322 322 321 320 318 316 319 323 325 326 324 323 323 321
327 332 332 332 335 333 329 323 319 328 327 329 329 327 327 326 324 326 326 326 328 327 324 322 322 321 320 322 323 322 321 321 320 319 317 322 324 325 323 323 322 321 320
325 331 331 335 335 334 330 326 319 324 328 325 324 325 327 327 327 325 324 324 327 324 319 319 320 320 318 321 321 321 321 321 320 319 316 316 318 322 322 321 320 319 318
327 331 331 334 335 334 331 329 323 319 320 319 319 320 327 328 327 325 323 322 323 322 320 318 317 317 319 321 321 321 320 320 320 319 318 316 317 321 320 320 319 318 316
326 328 328 331 333 332 331 329 325 320 318 319 318 318 325 327 327 325 324 323 322 322 321 319 318 318 317 319 321 321 320 320 320 319 319 318 317 318 318 316 315 316 315
326 325 325 326 329 330 329 328 325 320 318 318 318 318 318 320 322 324 323 320 319 319 320 320 319 321 320 320 321 321 321 321 320 320 319 319 319 318 318 317 316 316 316
324 324 324 323 324 326 327 328 324 322 320 323 324 323 323 324 322 319 318 318 316 317 316 318 319 318 318 319 319 320 321 321 321 321 320 319 319 319 320 321 320 319 318
325 323 323 322 324 324 326 326 326 324 321 325 326 325 324 323 323 322 318 320 318 320 318 317 317 317 317 317 317 317 318 320 320 320 320 320 320 319 320 322 322 322 322
327 326 323 323 323 323 324 324 325 324 325 324 326 326 325 324 321 324 324 323 323 321 320 320 319 318 318 317 318 318 319 319 319 319 320 320 320 320 320 321 323 323 323
331 331 329 328 329 329 325 323 323 324 327 328 328 328 327 325 323 324 324 324 324 323 322 321 320 320 320 319 319 319 318 318 318 318 318 318 318 319 319 319 320 323 323
333 332 332 332 331 331 330 329 327 329 329 329 329 329 329 327 325 325 324 324 324 323 323 322 322 321 321 321 320 320 320 319 320 320 320 320 320 319 318 318 318 318 321
334 333 333 333 332 331 331 331 330 330 330 330 329 329 329 328 326 325 325 325 324 324 323 323 323 322 322 322 321 321 321 322 323 322 322 322 321 320 320 319 319 318 317
335 334 334 333 332 332 332 331 331 331 331 330 329 328 328 327 327 327 326 325 325 324 324 324 323 322 322 321 322 324 324 324 323 322 322 320 320 320 320 319 319 318 318
333 334 334 334 334 333 332 331 331 332 331 331 330 329 328 327 326 326 327 327 326 325 325 324 324 323 322 323 324 325 324 322 319 321 320 320 319 316 318 317 317 316 317
331 332 334 334 334 334 334 333 332 331 331 331 331 330 330 328 327 327 328 328 328 327 327 326 325 324 324 323 322 323 321 320 320 319 318 317 317 316 316 313 314 312 313
329 330 332 334 334 334 334 334 334 332 328 328 328 329 329 328 328 328 329 329 329 330 329 327 326 324 323 323 322 318 314 318 318 318 316 317 315 314 313 313 311 312 311
325 328 331 333 334 334 333 333 332 330 328 327 328 328 328 328 328 329 328 328 328 329 329 327 326 324 321 322 321 319 317 316 314 315 314 315 311 312 310 311 308 308 307
321 326 330 332 333 333 333 333 331 330 329 327 326 327 328 329 329 328 327 326 327 327 327 326 324 323 322 320 318 316 315 315 313 313 312 310 311 307 307 303 303 299 301
310 313 319 325 331 332 332 333 332 331 328 325 326 328 329 328 327 326 326 326 326 325 325 323 321 320 318 316 315 313 313 310 311 308 308 306 305 304 303 304 301 301 302
312 312 311 310 317 330 332 332 331 331 327 326 326 327 326 326 325 325 324 323 322 321 318 316 315 314 312 311 310 309 309 308 307 306 305 303 301 301 298 300 299 301 304

GFSSE_925_thetae_111.txt.gz
Theta_e
336 335 336 335 336 336 336 334 333 336 337 338 337 337 337 335 332 333 333 333 333 335 333 334 333 334 334 334 334 332 331 331 331 331 331 332 332 333 332 329 329 330 329
334 335 336 335 334 335 333 332 331 333 335 336 335 335 335 335 333 330 331 332 332 332 333 334 332 332 331 330 328 327 327 328 328 328 327 327 330 330 329 327 327 327 326
335 335 336 335 332 333 331 331 329 330 332 333 334 333 332 333 332 332 331 331 331 331 330 332 332 330 329 329 327 324 324 326 326 326 326 326 327 328 329 328 327 327 327
335 334 334 335 331 330 330 330 332 332 331 332 332 331 331 330 331 330 330 330 330 329 329 331 330 329 328 325 323 322 324 324 325 325 327 328 328 328 327 325 325 324 325
333 333 334 335 328 330 330 331 333 333 330 331 330 329 330 329 329 329 329 329 329 328 328 330 330 328 326 324 321 319 320 321 321 321 323 326 328 327 326 325 323 321 321
333 332 335 335 326 329 327 330 335 333 330 330 329 329 329 328 327 328 327 328 327 327 327 329 329 324 322 321 320 319 318 317 316 320 321 323 325 325 324 323 323 322 321
331 331 335 334 326 328 329 328 333 332 330 326 329 328 328 327 327 327 327 327 327 327 327 326 323 322 322 321 320 319 318 316 315 317 318 321 323 323 322 321 321 320 320
330 332 335 334 326 327 330 329 329 329 329 327 325 328 326 328 328 327 327 327 328 327 326 322 320 320 321 320 320 319 319 317 317 315 316 321 323 323 322 321 320 319 319
330 333 335 333 326 323 329 328 323 327 327 327 328 326 323 324 323 324 325 325 325 325 323 319 318 320 320 320 319 319 319 318 318 318 317 320 322 322 321 320 319 318 317
330 332 334 333 328 322 326 325 320 321 322 324 328 327 326 323 322 322 322 320 318 317 318 317 317 319 320 320 320 319 319 319 319 318 318 318 321 322 321 320 319 319 318
331 331 334 334 330 325 322 325 322 319 319 322 326 327 326 323 321 321 321 321 319 318 317 318 319 318 319 320 320 320 320 319 319 319 319 319 320 323 323 322 321 321 321
331 333 334 334 332 328 324 321 321 320 319 318 324 326 326 324 322 321 320 319 318 319 318 318 319 319 319 318 318 319 319 319 319 319 319 320 319 321 324 324 324 324 323
329 331 333 332 333 330 328 322 319 320 318 317 319 322 322 321 320 320 318 317 316 316 317 317 317 316 316 317 317 318 318 318 319 319 319 319 319 319 322 324 324 325 326
328 330 332 334 332 330 328 326 320 319 319 319 318 319 322 320 319 317 318 318 319 319 317 317 317 317 317 318 318 318 319 319 319 319 319 319 319 318 319 321 324 324 325
326 327 326 332 333 331 325 325 322 319 320 322 322 323 323 322 322 320 321 322 321 321 320 319 320 320 320 320 320 320 320 320 319 320 320 320 321 320 320 319 321 323 323
322 325 324 323 326 328 326 325 322 322 321 323 325 325 324 323 321 323 323 323 323 322 322 322 321 321 321 322 322 321 321 321 322 322 322 321 320 319 319 318 318 320 321
321 322 324 323 321 322 323 325 324 323 322 322 324 326 325 325 323 322 323 323 323 322 322 322 322 322 322 321 321 321 323 323 322 321 320 319 318 316 317 316 314 314 314
323 321 321 322 323 323 322 323 324 324 323 325 327 328 327 327 327 324 324 324 324 324 323 323 323 322 321 321 322 324 323 323 321 319 318 317 316 315 314 313 312 308 311
330 324 322 322 321 322 323 323 323 323 324 325 328 329 328 326 326 325 326 326 325 325 324 323 323 322 323 323 324 324 323 320 319 318 317 316 315 314 310 308 305 303 300
333 331 327 325 325 324 326 328 327 326 326 328 329 328 327 326 326 325 324 325 326 325 325 324 325 325 324 323 322 322 321 319 318 316 315 314 313 309 300 300 298 298 298
333 333 332 331 331 330 329 329 329 328 328 329 330 329 327 326 327 326 324 323 324 324 325 326 326 325 324 322 321 321 319 318 317 314 313 311 312 307 296 296 298 297 298
330 332 332 333 332 332 331 331 330 330 329 330 328 327 328 328 328 327 325 325 326 327 328 328 327 325 323 321 321 318 319 316 316 313 310 312 304 297 295 296 296 297 300
327 329 331 333 333 333 332 331 330 329 330 330 328 328 328 328 328 327 328 327 328 329 328 328 326 325 323 320 318 318 319 317 313 312 311 306 304 294 294 296 295 298 300
327 328 328 330 331 333 333 332 331 330 330 330 328 327 326 325 327 327 327 327 328 328 326 326 325 324 322 320 316 315 314 314 311 310 306 303 296 294 295 295 295 299 299
322 326 328 328 329 330 331 332 332 331 331 333 331 329 326 326 327 328 328 328 327 326 325 324 323 322 320 317 314 313 309 308 306 306 305 302 294 293 297 295 296 298 297
314 319 323 325 326 328 329 330 331 331 331 331 331 328 326 326 327 328 328 327 325 324 323 322 320 317 316 315 311 308 304 303 303 300 300 297 295 293 296 295 298 296 293

GFSSE_925_thetae_114.txt.gz
Theta_e
338 337 337 336 337 334 335 335 337 338 338 337 338 337 335 333 333 333 333 334 335 335 333 333 332 333 334 334 333 331 328 328 328 330 332 331 331 330 329 327 326 326 328
338 338 335 335 335 334 334 334 335 337 337 337 336 335 335 331 332 332 333 332 331 332 332 331 330 331 331 330 328 327 327 328 326 327 328 328 330 330 328 327 327 327 327
337 338 338 334 335 333 331 330 331 334 335 335 334 333 333 333 333 331 332 329 330 331 331 330 330 329 329 328 326 325 325 325 325 326 328 327 327 328 326 326 327 329 329
337 338 338 331 329 330 330 330 330 331 332 332 331 331 331 331 332 331 330 329 329 330 330 330 329 328 327 324 322 324 324 324 325 327 326 328 326 327 325 324 324 326 324
337 337 336 330 329 330 332 334 330 330 330 330 330 330 330 329 329 330 329 328 329 330 331 329 328 327 323 320 318 318 316 317 321 324 325 325 324 324 323 323 322 322 322
336 337 335 328 330 330 332 335 331 328 329 328 329 330 329 329 327 328 328 327 327 328 329 328 328 325 322 320 319 317 316 321 323 323 323 323 323 323 322 322 322 321 321
336 337 336 328 326 327 332 335 330 327 326 329 328 328 328 327 327 327 327 327 326 328 328 327 323 322 320 319 318 317 316 318 320 321 323 323 323 323 322 321 320 320 319
335 337 336 328 326 327 330 333 331 328 324 328 328 328 327 326 327 327 327 326 326 326 326 321 320 320 320 319 319 318 318 319 320 321 323 323 323 323 322 321 320 319 319
335 337 337 332 329 330 329 330 330 329 325 326 325 328 327 324 327 325 326 327 327 325 321 318 320 320 319 319 319 319 318 319 320 321 321 322 323 324 323 321 321 320 319
335 337 337 333 329 330 331 327 329 328 328 328 326 324 323 323 323 324 323 324 324 319 317 317 319 320 320 320 319 319 319 320 321 321 321 321 324 324 324 323 322 322 322
334 336 336 334 329 329 330 326 325 325 325 328 327 326 324 326 326 326 323 320 318 317 317 318 319 319 320 319 319 319 320 321 321 321 321 319 320 324 325 325 324 324 324
332 335 336 335 330 328 328 328 328 324 326 328 328 328 327 326 325 324 319 319 319 318 318 319 318 319 320 321 320 320 322 322 322 322 321 319 319 322 325 325 325 326 327
331 331 333 334 332 329 326 327 327 325 323 325 327 327 325 324 324 323 322 321 319 318 321 320 320 320 319 320 321 321 321 321 322 321 320 319 319 319 323 324 325 325 325
329 331 332 332 333 331 328 324 325 325 323 323 323 322 323 323 322 322 321 321 321 320 319 321 321 318 319 319 319 321 321 321 321 321 321 320 320 320 321 323 324 324 324
327 330 332 332 331 332 330 327 324 324 323 323 322 321 324 324 323 321 322 322 322 322 322 322 322 321 321 321 321 321 321 321 321 321 321 320 319 318 319 322 322 322 322
326 327 330 331 331 330 331 329 325 323 323 324 325 325 323 324 324 324 324 324 324 323 323 323 323 322 322 322 322 320 322 322 322 321 320 319 317 316 316 316 316 316 318
324 326 328 329 332 331 329 327 326 325 323 325 326 325 324 324 324 324 325 325 324 322 322 322 322 322 323 322 322 322 323 323 322 320 319 318 317 315 312 312 307 312 313
323 324 326 327 327 327 327 327 328 326 325 324 325 326 325 325 325 324 325 325 324 323 323 324 324 323 323 323 324 325 324 322 320 318 317 317 315 314 310 302 300 298 308
326 324 325 325 326 326 327 327 328 327 327 326 327 328 328 327 326 326 326 326 325 324 324 323 322 323 323 325 324 323 324 321 318 317 316 314 312 305 305 303 302 299 306
331 326 324 325 325 325 326 326 326 327 326 326 327 329 329 328 325 325 325 326 326 325 324 323 322 325 324 323 322 323 321 319 317 316 314 312 309 300 302 303 303 304 303
333 332 329 326 325 325 325 326 327 328 327 327 328 329 329 327 326 325 324 323 323 324 324 324 325 325 324 322 323 323 320 318 317 315 313 308 303 300 301 301 302 303 302
333 333 333 331 328 327 327 328 329 329 329 329 329 329 329 328 326 326 325 324 323 324 325 326 327 326 324 321 322 321 322 319 317 313 311 306 299 299 300 300 301 299 298
332 333 333 333 333 331 330 330 330 331 330 330 330 329 328 326 327 327 327 327 326 326 326 327 328 326 324 320 319 321 322 320 316 313 312 305 297 298 299 300 298 296 294
329 330 332 333 333 333 332 331 330 330 331 331 331 329 327 327 327 328 327 326 327 326 327 328 327 325 323 320 317 316 316 316 314 310 308 305 297 298 298 299 298 294 293
327 328 329 331 332 333 332 332 331 331 332 333 332 330 327 327 325 326 326 326 326 326 328 326 325 323 322 320 318 315 312 311 310 308 304 301 297 297 298 297 295 293 291
321 324 326 328 330 331 332 332 332 332 332 332 332 330 329 327 326 326 325 326 327 328 326 324 323 321 320 317 315 313 310 307 306 302 302 299 297 296 298 296 294 292 289

GFSSE_925_thetae_117.txt.gz
Theta_e
339 335 338 337 335 334 334 337 337 336 337 338 336 335 334 334 334 334 334 332 333 332 333 332 333 333 334 333 333 332 330 329 329 328 328 331 329 329 329 326 327 329 329
339 338 335 335 334 333 332 336 337 337 338 337 336 332 333 336 335 332 331 331 332 331 331 330 331 331 331 331 330 327 326 326 327 328 328 328 327 326 328 330 331 329 326
338 339 338 335 333 331 330 332 335 336 336 335 334 334 334 335 332 330 329 331 330 331 329 329 329 329 329 327 325 325 325 326 327 328 327 326 325 324 325 326 327 325 326
338 337 336 332 330 330 329 330 331 334 334 332 331 332 331 331 331 329 328 330 330 329 329 329 328 326 325 324 322 323 323 323 325 326 326 325 323 324 324 323 325 323 322
336 337 334 329 330 331 331 330 330 330 330 331 331 330 331 331 330 329 327 329 329 329 327 328 327 326 323 318 316 316 322 323 324 323 323 323 322 323 323 322 322 322 322
336 338 330 328 330 331 334 331 329 329 330 330 329 329 329 329 328 328 326 328 328 327 327 328 327 325 319 317 315 317 320 321 322 324 324 323 324 324 323 322 321 321 321
336 337 333 329 329 331 335 331 328 328 328 329 328 329 329 328 328 327 326 326 327 327 328 327 325 320 319 318 317 318 320 322 324 324 324 324 324 324 323 322 321 321 320
337 336 334 328 327 332 335 331 327 327 328 327 326 327 327 327 327 327 326 326 326 327 325 322 321 319 319 319 318 318 320 321 323 324 324 324 324 325 324 323 322 321 321
335 336 334 330 329 329 333 332 328 325 328 328 329 326 324 325 326 326 326 326 326 323 319 320 319 319 319 319 318 318 320 321 322 322 323 324 325 326 325 324 323 323 322
334 336 334 331 330 331 331 331 329 326 327 324 327 324 326 325 324 323 325 324 320 317 317 319 319 320 319 319 319 320 322 322 322 322 321 320 324 326 326 326 325 325 325
335 336 334 330 329 330 329 329 328 328 328 326 324 322 326 326 326 327 322 318 317 317 318 318 319 319 320 319 319 322 323 323 323 323 321 319 320 326 326 325 325 327 327
333 336 335 331 329 329 328 327 328 325 329 330 328 328 326 326 326 325 320 319 317 317 319 317 318 320 322 322 322 322 323 323 323 323 321 319 319 322 325 324 324 325 326
331 335 336 333 328 328 327 328 327 326 327 329 329 328 327 325 323 324 321 321 319 320 322 322 322 322 322 323 323 323 323 323 323 323 322 320 320 321 325 325 324 325 325
329 332 335 334 331 328 327 328 327 325 325 327 328 328 326 326 325 324 323 323 322 322 322 323 323 323 323 323 323 323 323 323 323 323 322 320 319 321 324 323 322 322 322
328 330 332 334 333 331 328 326 326 326 325 324 325 326 326 325 325 324 324 324 324 324 324 324 324 324 324 324 323 323 323 324 323 323 322 318 317 318 319 318 318 319 319
327 329 330 332 332 331 330 328 326 325 325 325 325 326 326 326 326 325 326 326 326 325 325 325 325 325 325 324 323 323 324 325 323 322 321 319 316 313 311 311 312 313 313
326 328 329 331 331 330 329 330 327 325 325 326 327 328 327 326 326 326 327 327 326 325 325 324 325 325 324 323 324 325 325 324 322 320 320 319 317 314 304 299 308 310 312
325 326 327 329 330 329 328 328 329 327 325 326 327 328 327 326 326 326 327 327 326 325 325 325 325 325 324 324 325 325 325 324 321 319 318 316 311 307 307 301 303 309 308
324 324 327 329 329 329 329 328 329 327 327 326 326 328 328 327 327 327 327 327 326 326 325 324 324 322 323 325 324 323 325 322 319 318 315 313 305 304 304 304 303 302 302
326 323 325 327 327 328 327 327 328 329 328 327 327 328 329 329 327 326 326 328 327 326 324 323 322 323 324 322 324 324 322 320 318 317 314 310 300 302 303 303 304 303 298
331 326 324 325 326 327 327 327 327 328 328 327 327 328 330 330 327 325 324 326 327 325 325 325 324 324 324 323 324 324 321 320 318 315 311 305 300 301 301 302 301 300 297
333 332 328 325 325 326 326 326 326 327 328 328 328 329 330 329 327 325 325 324 325 326 326 325 324 325 325 323 323 322 323 319 317 314 309 302 299 300 301 300 297 295 294
334 334 334 330 327 326 326 326 327 329 330 330 330 330 330 329 328 327 326 325 324 324 324 324 325 326 325 322 321 322 322 322 317 314 310 301 298 300 300 299 296 294 292
334 334 334 334 333 330 328 330 330 331 331 331 331 331 330 329 328 327 326 326 326 326 326 327 326 327 325 322 320 318 318 318 318 313 308 302 297 299 299 299 296 293 291
331 333 334 334 335 334 333 332 333 332 332 332 332 332 331 329 327 326 326 327 327 327 326 325 327 326 325 323 320 317 316 314 314 310 307 302 297 298 298 297 294 292 290
329 330 331 333 334 334 334 334 333 333 333 333 333 333 333 331 328 326 326 325 326 326 325 325 327 324 323 322 320 318 314 311 308 304 303 301 298 297 298 297 294 292 290

GFSSE_925_thetae_123.txt.gz
Theta_e
335 336 336 334 336 338 336 336 335 335 334 334 336 337 335 333 331 331 331 330 331 332 332 332 331 331 331 331 332 331 331 327 324 325 326 328 329 327 327 326 323 324 325
335 335 335 333 335 337 336 336 336 335 334 336 336 335 332 332 330 328 328 329 330 329 330 329 329 328 329 330 327 326 327 326 323 323 324 325 326 324 324 324 324 324 325
335 334 333 332 334 336 335 336 336 336 335 335 334 332 330 330 330 327 327 328 328 328 328 328 328 328 324 324 324 324 325 325 322 322 321 323 324 324 323 323 323 323 323
334 334 333 329 329 334 335 335 334 333 332 332 331 331 329 330 330 328 328 327 327 328 327 326 326 325 321 323 323 323 323 322 322 320 322 323 324 324 324 324 323 323 323
336 333 329 327 327 330 333 333 331 331 331 329 329 330 329 329 330 328 326 327 328 328 327 325 324 320 322 322 323 324 323 322 319 321 323 324 324 325 324 323 323 323 324
334 329 329 329 329 328 329 329 329 329 328 329 330 329 328 326 328 327 325 327 327 327 327 325 317 317 320 322 324 324 323 321 320 322 323 324 325 325 325 325 324 324 324
329 327 329 331 330 328 328 328 328 328 327 327 328 328 327 325 327 326 325 326 327 327 325 318 316 318 320 322 323 323 323 323 321 323 324 324 325 326 326 326 326 326 326
328 327 329 333 332 329 327 327 327 326 326 326 326 327 327 325 324 326 327 326 326 326 320 318 317 317 320 321 322 322 323 322 321 323 324 325 326 328 327 326 326 326 327
331 326 329 333 332 327 323 327 326 325 326 326 324 325 325 326 325 323 325 325 324 319 318 318 317 317 320 321 322 322 322 321 320 319 322 324 325 328 328 328 327 327 327
333 326 326 334 332 328 325 326 326 326 326 325 324 324 324 325 324 323 319 318 319 319 319 318 318 318 321 322 323 323 322 322 322 320 320 322 325 326 326 326 326 326 327
333 330 325 332 332 329 325 327 327 326 326 325 324 322 322 323 322 320 316 315 316 317 318 319 321 321 322 322 323 323 323 322 322 321 320 321 325 326 326 326 326 325 324
333 331 328 329 330 330 327 324 326 326 326 321 324 325 325 326 323 316 315 315 318 318 318 321 322 322 322 322 322 323 322 322 322 322 319 323 325 325 324 324 324 321 320
334 331 330 330 330 328 328 326 326 324 322 322 326 326 326 326 321 316 316 316 317 319 321 321 321 321 322 322 322 323 322 322 322 322 319 322 322 322 322 321 319 318 318
335 333 330 329 329 328 325 325 324 326 328 324 327 326 325 325 322 321 321 319 321 321 321 322 320 321 322 322 322 322 323 323 322 321 318 317 318 318 318 317 317 317 316
334 334 330 329 329 328 323 326 323 327 329 327 328 327 323 322 324 323 322 322 321 321 322 322 323 323 323 323 322 322 324 323 322 320 317 315 311 314 315 316 316 313 311
332 334 333 329 328 328 326 328 325 325 326 327 327 325 323 324 323 323 322 323 323 323 323 324 324 324 323 322 322 324 324 322 321 319 317 315 308 307 314 314 312 310 309
329 332 335 330 328 327 327 327 326 325 323 325 325 324 325 325 323 323 323 325 325 324 324 324 324 323 323 323 323 324 324 321 320 318 316 312 306 309 311 309 307 307 307
329 330 333 333 330 328 327 326 326 325 324 324 323 324 325 326 325 324 325 326 326 325 324 323 324 324 324 323 324 324 324 320 318 316 310 307 305 302 303 304 304 304 305
328 328 331 332 332 330 330 328 325 325 325 325 324 325 325 325 325 325 326 326 326 325 323 324 325 324 324 323 324 323 322 320 318 314 308 304 303 302 303 302 298 298 301
328 327 328 330 331 331 330 329 328 326 325 325 325 326 326 325 325 325 325 326 326 325 324 325 324 322 321 323 322 323 321 318 317 313 308 301 301 302 303 301 298 292 293
329 327 328 328 328 330 329 327 328 328 326 325 324 326 326 326 325 325 325 326 326 326 325 325 323 322 322 320 321 320 319 317 314 310 306 301 300 301 301 300 295 291 290
331 326 327 327 327 329 330 329 327 327 328 326 325 325 326 326 327 326 326 326 326 326 326 325 323 323 322 322 321 321 319 316 307 302 302 300 299 300 298 294 292 291 290
332 330 326 326 326 327 328 328 328 326 327 328 327 326 326 326 328 328 327 325 325 326 323 323 323 323 322 323 322 320 319 319 310 299 300 300 299 299 296 294 292 290 290
332 333 326 324 326 327 327 327 326 326 326 327 328 327 327 327 328 329 328 326 325 325 325 322 322 322 322 323 323 321 320 318 314 309 298 300 299 299 298 296 293 290 289
332 331 328 324 325 326 327 326 326 326 326 326 327 327 327 326 327 328 329 328 326 324 324 324 324 324 323 324 323 321 320 317 315 308 303 298 299 299 298 297 293 290 289
331 332 330 326 323 324 325 326 326 326 325 325 327 327 327 327 327 328 328 329 327 326 325 325 324 324 324 325 325 324 320 317 315 310 300 296 298 297 297 296 294 291 289